Time,TemperatureF,DewpointF,PressureIn,WindDirection,WindDirectionDegrees,WindSpeedMPH,WindSpeedGustMPH,Humidity,HourlyPrecipIn,Conditions,Clouds,dailyrainin,SoftwareType,DateUTC
2013-01-19 00:02:00,40.0,6.0,30.27,South,171,0.0,0.0,24,0.00,,,0.00,,2013-01-19 08:02:00,
2013-01-19 00:11:00,40.0,6.0,30.27,South,171,0.0,0.0,24,0.00,,,0.00,,2013-01-19 08:11:00,
2013-01-19 00:22:00,39.0,5.0,30.27,South,171,0.0,1.0,24,0.00,,,0.00,,2013-01-19 08:22:00,
2013-01-19 00:32:00,38.0,4.0,30.27,South,171,0.0,1.0,24,0.00,,,0.00,,2013-01-19 08:32:00,
2013-01-19 00:42:00,38.0,4.0,30.27,South,171,0.0,1.0,24,0.00,,,0.00,,2013-01-19 08:42:00,
2013-01-19 00:53:00,36.0,4.0,30.27,South,171,1.0,3.0,25,0.00,,,0.00,,2013-01-19 08:53:00,
2013-01-19 01:02:00,36.0,4.0,30.27,South,171,0.0,1.0,26,0.00,,,0.00,,2013-01-19 09:02:00,
2013-01-19 01:11:00,36.0,4.0,30.27,South,171,0.0,1.0,26,0.00,,,0.00,,2013-01-19 09:11:00,
2013-01-19 01:22:00,35.0,4.0,30.28,South,171,0.0,2.0,26,0.00,,,0.00,,2013-01-19 09:22:00,
2013-01-19 01:32:00,34.0,3.0,30.28,South,171,0.0,0.0,26,0.00,,,0.00,,2013-01-19 09:32:00,
2013-01-19 01:42:00,34.0,3.0,30.28,South,171,0.0,0.0,26,0.00,,,0.00,,2013-01-19 09:42:00,
2013-01-19 01:52:00,33.0,3.0,30.29,South,171,0.0,0.0,28,0.00,,,0.00,,2013-01-19 09:52:00,
2013-01-19 02:01:00,33.0,3.0,30.29,South,171,0.0,0.0,28,0.00,,,0.00,,2013-01-19 10:01:00,
2013-01-19 02:12:00,33.0,3.0,30.29,South,171,0.0,0.0,28,0.00,,,0.00,,2013-01-19 10:12:00,
2013-01-19 02:22:00,33.0,3.0,30.29,South,173,0.0,2.0,28,0.00,,,0.00,,2013-01-19 10:22:00,
2013-01-19 02:32:00,32.0,3.0,30.29,South,173,0.0,1.0,28,0.00,,,0.00,,2013-01-19 10:32:00,
2013-01-19 02:43:00,32.0,3.0,30.29,South,173,0.0,1.0,28,0.00,,,0.00,,2013-01-19 10:43:00,
2013-01-19 02:52:00,32.0,3.0,30.28,South,173,0.0,3.0,29,0.00,,,0.00,,2013-01-19 10:52:00,
2013-01-19 03:02:00,31.0,3.0,30.28,South,172,0.0,0.0,29,0.00,,,0.00,,2013-01-19 11:02:00,
2013-01-19 03:12:00,31.0,3.0,30.28,South,172,0.0,0.0,29,0.00,,,0.00,,2013-01-19 11:12:00,
2013-01-19 04:47:00,37.0,5.0,30.29,SSW,210,4.0,5.0,26,0.00,,,0.00,,2013-01-19 12:47:00,
2013-01-19 04:53:00,37.0,4.0,30.29,SW,217,4.0,9.0,25,0.00,,,0.00,,2013-01-19 12:53:00,
2013-01-19 05:02:00,37.0,4.0,30.29,SW,217,5.0,6.0,25,0.00,,,0.00,,2013-01-19 13:02:00,
2013-01-19 05:12:00,37.0,4.0,30.29,SW,217,5.0,6.0,25,0.00,,,0.00,,2013-01-19 13:12:00,
2013-01-19 05:22:00,38.0,5.0,30.29,SSW,213,4.0,7.0,25,0.00,,,0.00,,2013-01-19 13:22:00,
2013-01-19 05:32:00,38.0,5.0,30.29,SW,214,5.0,7.0,25,0.00,,,0.00,,2013-01-19 13:32:00,
2013-01-19 05:42:00,38.0,5.0,30.29,SW,214,5.0,7.0,25,0.00,,,0.00,,2013-01-19 13:42:00,
2013-01-19 05:53:00,37.0,4.0,30.29,SW,215,0.0,0.0,25,0.00,,,0.00,,2013-01-19 13:53:00,
2013-01-19 06:02:00,37.0,4.0,30.29,SW,215,0.0,2.0,25,0.00,,,0.00,,2013-01-19 14:02:00,
2013-01-19 06:12:00,37.0,4.0,30.29,SW,215,0.0,2.0,25,0.00,,,0.00,,2013-01-19 14:12:00,
2013-01-19 06:22:00,34.0,4.0,30.29,SW,215,0.0,0.0,27,0.00,,,0.00,,2013-01-19 14:22:00,
2013-01-19 06:33:00,33.0,3.0,30.29,SW,214,0.0,0.0,28,0.00,,,0.00,,2013-01-19 14:33:00,
2013-01-19 06:42:00,33.0,3.0,30.29,SW,214,0.0,0.0,28,0.00,,,0.00,,2013-01-19 14:42:00,
2013-01-19 06:53:00,33.0,3.0,30.29,SW,214,0.0,0.0,28,0.00,,,0.00,,2013-01-19 14:53:00,
2013-01-19 07:02:00,33.0,3.0,30.29,SW,214,0.0,0.0,28,0.00,,,0.00,,2013-01-19 15:02:00,
2013-01-19 07:23:00,32.0,3.0,30.32,WSW,238,3.0,3.0,29,0.00,,,0.00,,2013-01-19 15:23:00,
2013-01-19 07:33:00,32.0,3.0,30.32,WSW,237,0.0,3.0,29,0.00,,,0.00,,2013-01-19 15:33:00,
2013-01-19 07:43:00,32.0,3.0,30.32,WSW,237,0.0,3.0,29,0.00,,,0.00,,2013-01-19 15:43:00,
2013-01-19 07:53:00,32.0,3.0,30.33,WSW,238,0.0,0.0,29,0.00,,,0.00,,2013-01-19 15:53:00,
2013-01-19 08:02:00,32.0,4.0,30.34,WSW,237,0.0,0.0,30,0.00,,,0.00,,2013-01-19 16:02:00,
2013-01-19 08:12:00,32.0,4.0,30.34,WSW,237,0.0,0.0,30,0.00,,,0.00,,2013-01-19 16:12:00,
2013-01-19 08:22:00,33.0,4.0,30.34,WSW,237,0.0,0.0,29,0.00,,,0.00,,2013-01-19 16:22:00,
2013-01-19 08:32:00,35.0,5.0,30.35,WSW,237,1.0,4.0,28,0.00,,,0.00,,2013-01-19 16:32:00,
2013-01-19 08:42:00,35.0,5.0,30.35,WSW,237,1.0,4.0,28,0.00,,,0.00,,2013-01-19 16:42:00,
2013-01-19 08:53:00,43.0,8.0,30.35,WSW,237,1.0,5.0,23,0.00,,,0.00,,2013-01-19 16:53:00,
2013-01-19 09:02:00,46.0,9.0,30.36,WSW,242,2.0,7.0,22,0.00,,,0.00,,2013-01-19 17:02:00,
2013-01-19 09:33:00,49.0,9.0,30.37,West,260,4.0,9.0,19,0.00,,,0.00,,2013-01-19 17:33:00,
2013-01-19 09:54:00,50.0,9.0,30.37,WSW,254,4.0,9.0,19,0.00,,,0.00,,2013-01-19 17:54:00,
2013-01-19 10:03:00,50.0,9.0,30.37,WSW,244,2.0,8.0,19,0.00,,,0.00,,2013-01-19 18:03:00,
2013-01-19 10:24:00,53.0,11.0,30.36,WSW,250,3.0,7.0,18,0.00,,,0.00,,2013-01-19 18:24:00,
2013-01-19 10:32:00,54.0,10.0,30.36,West,259,2.0,9.0,17,0.00,,,0.00,,2013-01-19 18:32:00,
2013-01-19 10:57:00,56.0,12.0,30.35,West,259,3.0,6.0,17,0.00,,,0.00,,2013-01-19 18:57:00,
2013-01-19 11:03:00,57.0,13.0,30.35,West,259,1.0,6.0,17,0.00,,,0.00,,2013-01-19 19:03:00,
2013-01-19 11:55:00,61.0,14.0,30.31,West,272,1.0,3.0,16,0.00,,,0.00,,2013-01-19 19:55:00,
2013-01-19 12:23:00,62.0,14.0,30.29,West,279,2.0,3.0,15,0.00,,,0.00,,2013-01-19 20:23:00,
2013-01-19 12:33:00,62.0,14.0,30.29,WNW,292,1.0,4.0,15,0.00,,,0.00,,2013-01-19 20:33:00,
2013-01-19 13:03:00,63.0,13.0,30.27,NW,318,0.0,3.0,14,0.00,,,0.00,,2013-01-19 21:03:00,
2013-01-19 13:22:00,63.0,15.0,30.27,NNE,29,1.0,6.0,15,0.00,,,0.00,,2013-01-19 21:22:00,
2013-01-19 13:34:00,64.0,14.0,30.26,NNE,33,3.0,7.0,14,0.00,,,0.00,,2013-01-19 21:34:00,
2013-01-19 13:58:00,65.0,15.0,30.26,NE,41,2.0,5.0,14,0.00,,,0.00,,2013-01-19 21:58:00,
2013-01-19 14:03:00,65.0,13.0,30.26,NE,41,1.0,5.0,13,0.00,,,0.00,,2013-01-19 22:03:00,
2013-01-19 14:23:00,65.0,13.0,30.25,ENE,74,2.0,7.0,13,0.00,,,0.00,,2013-01-19 22:23:00,
2013-01-19 14:33:00,65.0,13.0,30.25,ENE,65,3.0,7.0,13,0.00,,,0.00,,2013-01-19 22:33:00,
2013-01-19 14:55:00,65.0,13.0,30.24,NE,49,3.0,9.0,13,0.00,,,0.00,,2013-01-19 22:55:00,
2013-01-19 15:03:00,65.0,13.0,30.24,ENE,63,5.0,7.0,13,0.00,,,0.00,,2013-01-19 23:03:00,
2013-01-19 15:24:00,64.0,12.0,30.23,ENE,69,4.0,8.0,13,0.00,,,0.00,,2013-01-19 23:24:00,
2013-01-19 15:33:00,64.0,12.0,30.23,ENE,67,5.0,9.0,13,0.00,,,0.00,,2013-01-19 23:33:00,
2013-01-19 16:02:00,64.0,12.0,30.23,ENE,65,4.0,9.0,13,0.00,,,0.00,,2013-01-20 00:02:00,
2013-01-19 16:23:00,63.0,13.0,30.23,NE,41,4.0,7.0,14,0.00,,,0.00,,2013-01-20 00:23:00,
2013-01-19 16:33:00,62.0,12.0,30.23,NE,36,2.0,7.0,14,0.00,,,0.00,,2013-01-20 00:33:00,
2013-01-19 16:55:00,61.0,13.0,30.23,NE,37,2.0,6.0,15,0.00,,,0.00,,2013-01-20 00:55:00,
2013-01-19 17:02:00,60.0,14.0,30.24,NE,37,0.0,4.0,16,0.00,,,0.00,,2013-01-20 01:02:00,
2013-01-19 17:22:00,58.0,11.0,30.24,NE,37,0.0,1.0,15,0.00,,,0.00,,2013-01-20 01:22:00,
2013-01-19 17:33:00,57.0,11.0,30.24,NE,37,0.0,1.0,16,0.00,,,0.00,,2013-01-20 01:33:00,
2013-01-19 18:02:00,51.0,8.0,30.24,NE,37,1.0,3.0,17,0.00,,,0.00,,2013-01-20 02:02:00,
2013-01-19 18:12:00,51.0,8.0,30.24,NE,37,1.0,3.0,17,0.00,,,0.00,,2013-01-20 02:12:00,
2013-01-19 18:24:00,49.0,7.0,30.25,NE,37,2.0,4.0,18,0.00,,,0.00,,2013-01-20 02:24:00,
2013-01-19 18:33:00,48.0,8.0,30.25,NE,37,1.0,3.0,19,0.00,,,0.00,,2013-01-20 02:33:00,
2013-01-19 18:57:00,47.0,7.0,30.25,NE,37,0.0,2.0,19,0.00,,,0.00,,2013-01-20 02:57:00,
2013-01-19 19:03:00,46.0,6.0,30.26,NE,37,0.0,0.0,19,0.00,,,0.00,,2013-01-20 03:03:00,
2013-01-19 19:13:00,46.0,6.0,30.26,NE,37,0.0,0.0,19,0.00,,,0.00,,2013-01-20 03:13:00,
2013-01-19 19:23:00,45.0,5.0,30.26,NE,37,3.0,3.0,19,0.00,,,0.00,,2013-01-20 03:23:00,
2013-01-19 19:33:00,45.0,6.0,30.26,NE,37,3.0,4.0,20,0.00,,,0.00,,2013-01-20 03:33:00,
2013-01-19 19:55:00,44.0,6.0,30.27,East,91,2.0,5.0,20,0.00,,,0.00,,2013-01-20 03:55:00,
2013-01-19 20:03:00,45.0,6.0,30.27,ESE,103,4.0,4.0,20,0.00,,,0.00,,2013-01-20 04:03:00,
2013-01-19 20:23:00,44.0,6.0,30.27,ESE,107,3.0,5.0,20,0.00,,,0.00,,2013-01-20 04:23:00,
2013-01-19 20:33:00,44.0,6.0,30.27,ESE,107,3.0,4.0,20,0.00,,,0.00,,2013-01-20 04:33:00,
2013-01-19 20:43:00,44.0,6.0,30.27,ESE,107,3.0,4.0,20,0.00,,,0.00,,2013-01-20 04:43:00,
2013-01-19 20:55:00,44.0,6.0,30.27,ESE,107,3.0,4.0,20,0.00,,,0.00,,2013-01-20 04:55:00,
2013-01-19 21:02:00,44.0,6.0,30.27,ESE,107,3.0,4.0,20,0.00,,,0.00,,2013-01-20 05:02:00,
2013-01-19 21:12:00,44.0,6.0,30.27,ESE,107,3.0,4.0,20,0.00,,,0.00,,2013-01-20 05:12:00,
2013-01-19 21:22:00,43.0,6.0,30.27,ESE,107,0.0,2.0,21,0.00,,,0.00,,2013-01-20 05:22:00,
2013-01-19 21:32:00,44.0,7.0,30.27,ESE,107,1.0,2.0,21,0.00,,,0.00,,2013-01-20 05:32:00,
2013-01-19 21:53:00,43.0,6.0,30.28,ESE,109,2.0,4.0,21,0.00,,,0.00,,2013-01-20 05:53:00,
2013-01-19 22:02:00,43.0,6.0,30.28,ESE,110,1.0,4.0,21,0.00,,,0.00,,2013-01-20 06:02:00,
2013-01-19 22:11:00,43.0,6.0,30.28,ESE,110,1.0,4.0,21,0.00,,,0.00,,2013-01-20 06:11:00,
2013-01-19 22:22:00,42.0,4.0,30.28,ESE,110,1.0,2.0,20,0.00,,,0.00,,2013-01-20 06:22:00,
2013-01-19 22:32:00,42.0,5.0,30.28,ESE,110,1.0,3.0,21,0.00,,,0.00,,2013-01-20 06:32:00,
2013-01-19 22:42:00,42.0,5.0,30.28,ESE,110,1.0,3.0,21,0.00,,,0.00,,2013-01-20 06:42:00,
2013-01-19 22:52:00,41.0,5.0,30.28,ESE,110,0.0,2.0,22,0.00,,,0.00,,2013-01-20 06:52:00,
2013-01-19 23:02:00,41.0,5.0,30.28,ESE,110,0.0,2.0,22,0.00,,,0.00,,2013-01-20 07:02:00,
2013-01-19 23:11:00,41.0,5.0,30.28,ESE,110,0.0,2.0,22,0.00,,,0.00,,2013-01-20 07:11:00,
2013-01-19 23:22:00,41.0,5.0,30.28,ESE,110,1.0,2.0,22,0.00,,,0.00,,2013-01-20 07:22:00,
2013-01-19 23:32:00,40.0,5.0,30.28,ESE,110,0.0,3.0,23,0.00,,,0.00,,2013-01-20 07:32:00,
2013-01-19 23:42:00,40.0,5.0,30.28,ESE,110,0.0,3.0,23,0.00,,,0.00,,2013-01-20 07:42:00,
2013-01-19 23:52:00,40.0,5.0,30.28,ESE,110,0.0,2.0,23,0.00,,,0.00,,2013-01-20 07:52:00,